Year,Month,Day,Hour,Minute,Value (Times are PST for temperature in C)
2010,07,20,00,00,12.60
2010,07,20,00,01,12.50
2010,07,20,00,02,12.60
2010,07,20,00,03,12.60
2010,07,20,00,04,12.60
2010,07,20,00,05,12.60
2010,07,20,00,06,12.60
2010,07,20,00,07,12.60
2010,07,20,00,08,12.60
2010,07,20,00,09,12.60
2010,07,20,00,10,12.70
2010,07,20,00,11,12.70
2010,07,20,00,12,12.70
2010,07,20,00,13,12.60
2010,07,20,00,14,12.60
2010,07,20,00,15,12.60
2010,07,20,00,16,12.60
2010,07,20,00,17,12.60
2010,07,20,00,18,12.60
2010,07,20,00,19,12.60
2010,07,20,00,20,12.60
2010,07,20,00,21,12.60
2010,07,20,00,22,12.60
2010,07,20,00,23,12.60
2010,07,20,00,24,12.60
2010,07,20,00,25,12.60
2010,07,20,00,26,12.60
2010,07,20,00,27,12.60
2010,07,20,00,28,12.60
2010,07,20,00,29,12.60
2010,07,20,00,30,12.60
2010,07,20,00,31,12.60
2010,07,20,00,32,12.60
2010,07,20,00,33,12.60
2010,07,20,00,34,12.50
2010,07,20,00,35,12.50
2010,07,20,00,36,12.50
2010,07,20,00,37,12.50
2010,07,20,00,38,12.50
2010,07,20,00,39,12.50
2010,07,20,00,40,12.50
2010,07,20,00,41,12.40
2010,07,20,00,42,12.40
2010,07,20,00,43,12.40
2010,07,20,00,44,12.40
2010,07,20,00,45,12.40
2010,07,20,00,46,12.40
2010,07,20,00,47,12.40
2010,07,20,00,48,12.40
2010,07,20,00,49,12.40
2010,07,20,00,50,12.40
2010,07,20,00,51,12.40
2010,07,20,00,52,12.40
2010,07,20,00,53,12.40
2010,07,20,00,54,12.40
2010,07,20,00,55,12.40
2010,07,20,00,56,12.40
2010,07,20,00,57,12.40
2010,07,20,00,58,12.40
2010,07,20,00,59,12.40
2010,07,20,01,00,12.40
2010,07,20,01,01,12.40
2010,07,20,01,02,12.30
2010,07,20,01,03,12.30
2010,07,20,01,04,12.30
2010,07,20,01,05,12.30
2010,07,20,01,06,12.30
2010,07,20,01,07,12.30
2010,07,20,01,08,12.30
2010,07,20,01,09,12.30
2010,07,20,01,10,12.30
2010,07,20,01,11,12.30
2010,07,20,01,12,12.30
2010,07,20,01,13,12.30
2010,07,20,01,14,12.30
2010,07,20,01,15,12.30
2010,07,20,01,16,12.30
2010,07,20,01,17,12.30
2010,07,20,01,18,12.30
2010,07,20,01,19,12.30
2010,07,20,01,20,12.20
2010,07,20,01,21,12.20
2010,07,20,01,22,12.20
2010,07,20,01,23,12.20
2010,07,20,01,24,12.20
2010,07,20,01,25,12.20
2010,07,20,01,26,12.20
2010,07,20,01,27,12.20
2010,07,20,01,28,12.20
2010,07,20,01,29,12.20
2010,07,20,01,30,12.20
2010,07,20,01,31,12.20
2010,07,20,01,32,12.20
2010,07,20,01,33,12.20
2010,07,20,01,34,12.20
2010,07,20,01,35,12.20
2010,07,20,01,36,12.20
2010,07,20,01,37,12.20
2010,07,20,01,38,12.20
2010,07,20,01,39,12.10
2010,07,20,01,40,12.10
2010,07,20,01,41,12.10
2010,07,20,01,42,12.10
2010,07,20,01,43,12.10
2010,07,20,01,44,12.10
2010,07,20,01,45,12.10
2010,07,20,01,46,12.10
2010,07,20,01,47,12.10
2010,07,20,01,48,12.10
2010,07,20,01,49,12.10
2010,07,20,01,50,12.10
2010,07,20,01,51,12.10
2010,07,20,01,52,12.10
2010,07,20,01,53,12.10
2010,07,20,01,54,12.10
2010,07,20,01,55,12.10
2010,07,20,01,56,12.10
2010,07,20,01,57,12.10
2010,07,20,01,58,12.10
2010,07,20,01,59,12.10
2010,07,20,02,00,12.10
2010,07,20,02,01,12.10
2010,07,20,02,02,12.10
2010,07,20,02,03,12.10
2010,07,20,02,04,12.10
2010,07,20,02,05,12.10
2010,07,20,02,06,12.10
2010,07,20,02,07,12.10
2010,07,20,02,08,12.00
2010,07,20,02,09,12.00
2010,07,20,02,10,12.00
2010,07,20,02,11,12.00
2010,07,20,02,12,12.00
2010,07,20,02,13,12.00
2010,07,20,02,14,12.00
2010,07,20,02,15,12.00
2010,07,20,02,16,12.00
2010,07,20,02,17,12.00
2010,07,20,02,18,12.00
2010,07,20,02,19,11.90
2010,07,20,02,20,11.90
2010,07,20,02,21,11.90
2010,07,20,02,22,11.90
2010,07,20,02,23,11.90
2010,07,20,02,24,11.90
2010,07,20,02,25,11.90
2010,07,20,02,26,11.90
2010,07,20,02,27,11.90
2010,07,20,02,28,11.90
2010,07,20,02,29,11.90
2010,07,20,02,30,11.90
2010,07,20,02,31,11.90
2010,07,20,02,32,11.90
2010,07,20,02,33,11.90
2010,07,20,02,34,11.90
2010,07,20,02,35,11.90
2010,07,20,02,36,11.90
2010,07,20,02,37,11.90
2010,07,20,02,38,11.90
2010,07,20,02,39,11.90
2010,07,20,02,40,11.90
2010,07,20,02,41,11.90
2010,07,20,02,42,11.90
2010,07,20,02,43,11.90
2010,07,20,02,44,11.90
2010,07,20,02,45,11.90
2010,07,20,02,46,11.90
2010,07,20,02,47,11.90
2010,07,20,02,48,11.90
2010,07,20,02,49,11.90
2010,07,20,02,50,11.90
2010,07,20,02,51,12.00
2010,07,20,02,52,12.00
2010,07,20,02,53,12.00
2010,07,20,02,54,12.00
2010,07,20,02,55,12.00
2010,07,20,02,56,12.00
2010,07,20,02,57,12.00
2010,07,20,02,58,12.00
2010,07,20,02,59,12.00
2010,07,20,03,00,12.00
2010,07,20,03,01,12.00
2010,07,20,03,02,12.00
2010,07,20,03,03,12.00
2010,07,20,03,04,12.00
2010,07,20,03,05,11.90
2010,07,20,03,06,11.90
2010,07,20,03,07,11.90
2010,07,20,03,08,11.90
2010,07,20,03,09,11.90
2010,07,20,03,10,11.90
2010,07,20,03,11,11.90
2010,07,20,03,12,11.90
2010,07,20,03,13,11.90
2010,07,20,03,14,11.90
2010,07,20,03,15,11.90
2010,07,20,03,16,11.90
2010,07,20,03,17,11.90
2010,07,20,03,18,11.90
2010,07,20,03,19,11.90
2010,07,20,03,20,11.90
2010,07,20,03,21,11.90
2010,07,20,03,22,11.90
2010,07,20,03,23,11.90
2010,07,20,03,24,11.90
2010,07,20,03,25,12.00
2010,07,20,03,26,12.00
2010,07,20,03,27,12.00
2010,07,20,03,28,12.00
2010,07,20,03,29,12.00
2010,07,20,03,30,12.00
2010,07,20,03,31,12.00
2010,07,20,03,32,12.00
2010,07,20,03,33,12.00
2010,07,20,03,34,12.00
2010,07,20,03,35,12.00
2010,07,20,03,36,12.00
2010,07,20,03,37,11.90
2010,07,20,03,38,11.90
2010,07,20,03,39,11.90
2010,07,20,03,40,11.90
2010,07,20,03,41,11.90
2010,07,20,03,42,11.90
2010,07,20,03,43,11.90
2010,07,20,03,44,11.90
2010,07,20,03,45,11.90
2010,07,20,03,46,11.90
2010,07,20,03,47,11.90
2010,07,20,03,48,11.90
2010,07,20,03,49,11.90
2010,07,20,03,50,11.90
2010,07,20,03,51,11.90
2010,07,20,03,52,11.90
2010,07,20,03,53,11.90
2010,07,20,03,54,11.90
2010,07,20,03,55,11.90
2010,07,20,03,56,11.90
2010,07,20,03,57,11.90
2010,07,20,03,58,11.90
2010,07,20,03,59,11.90
2010,07,20,04,00,11.90
2010,07,20,04,01,11.90
2010,07,20,04,02,11.90
2010,07,20,04,03,11.90
2010,07,20,04,04,11.90
2010,07,20,04,05,11.90
2010,07,20,04,06,11.90
2010,07,20,04,07,11.90
2010,07,20,04,08,11.90
2010,07,20,04,09,11.90
2010,07,20,04,10,11.90
2010,07,20,04,11,11.90
2010,07,20,04,12,11.90
2010,07,20,04,13,11.90
2010,07,20,04,14,11.90
2010,07,20,04,15,11.90
2010,07,20,04,16,11.90
2010,07,20,04,17,11.90
2010,07,20,04,18,11.90
2010,07,20,04,19,11.90
2010,07,20,04,20,11.90
2010,07,20,04,21,11.80
2010,07,20,04,22,11.80
2010,07,20,04,23,11.80
2010,07,20,04,24,11.80
2010,07,20,04,25,11.80
2010,07,20,04,26,11.80
2010,07,20,04,27,11.70
2010,07,20,04,28,11.70
2010,07,20,04,29,11.70
2010,07,20,04,30,11.70
2010,07,20,04,31,11.70
2010,07,20,04,32,11.70
2010,07,20,04,33,11.70
2010,07,20,04,34,11.70
2010,07,20,04,35,11.70
2010,07,20,04,36,11.70
2010,07,20,04,37,11.70
2010,07,20,04,38,11.70
2010,07,20,04,39,11.70
2010,07,20,04,40,11.70
2010,07,20,04,41,11.70
2010,07,20,04,42,11.70
2010,07,20,04,43,11.70
2010,07,20,04,44,11.70
2010,07,20,04,45,11.70
2010,07,20,04,46,11.70
2010,07,20,04,47,11.70
2010,07,20,04,48,11.70
2010,07,20,04,49,11.70
2010,07,20,04,50,11.60
2010,07,20,04,51,11.60
2010,07,20,04,52,11.60
2010,07,20,04,53,11.60
2010,07,20,04,54,11.60
2010,07,20,04,55,11.60
2010,07,20,04,56,11.70
2010,07,20,04,57,11.70
2010,07,20,04,58,11.70
2010,07,20,04,59,11.70
2010,07,20,05,00,11.70
2010,07,20,05,01,11.70
2010,07,20,05,02,11.70
2010,07,20,05,03,11.70
2010,07,20,05,04,11.70
2010,07,20,05,05,11.70
2010,07,20,05,06,11.70
2010,07,20,05,07,11.70
2010,07,20,05,08,11.70
2010,07,20,05,09,11.70
2010,07,20,05,10,11.70
2010,07,20,05,11,11.70
2010,07,20,05,12,11.70
2010,07,20,05,13,11.70
2010,07,20,05,14,11.70
2010,07,20,05,15,11.70
2010,07,20,05,16,11.60
2010,07,20,05,17,11.70
2010,07,20,05,18,11.60
2010,07,20,05,19,11.70
2010,07,20,05,20,11.70
2010,07,20,05,21,11.70
2010,07,20,05,22,11.70
2010,07,20,05,23,11.70
2010,07,20,05,24,11.70
2010,07,20,05,25,11.70
2010,07,20,05,26,11.70
2010,07,20,05,27,11.60
2010,07,20,05,28,11.70
2010,07,20,05,29,11.70
2010,07,20,05,30,11.70
2010,07,20,05,31,11.60
2010,07,20,05,32,11.60
2010,07,20,05,33,11.60
2010,07,20,05,34,11.60
2010,07,20,05,35,11.60
2010,07,20,05,36,11.60
2010,07,20,05,37,11.60
2010,07,20,05,38,11.60
2010,07,20,05,39,11.60
2010,07,20,05,40,11.60
2010,07,20,05,41,11.60
2010,07,20,05,42,11.60
2010,07,20,05,43,11.60
2010,07,20,05,44,11.60
2010,07,20,05,45,11.60
2010,07,20,05,46,11.60
2010,07,20,05,47,11.60
2010,07,20,05,48,11.60
2010,07,20,05,49,11.60
2010,07,20,05,50,11.60
2010,07,20,05,51,11.60
2010,07,20,05,52,11.60
2010,07,20,05,53,11.60
2010,07,20,05,54,11.60
2010,07,20,05,55,11.60
2010,07,20,05,56,11.60
2010,07,20,05,57,11.60
2010,07,20,05,58,11.60
2010,07,20,05,59,11.60
2010,07,20,06,00,11.60
2010,07,20,06,01,11.60
2010,07,20,06,02,11.60
2010,07,20,06,03,11.60
2010,07,20,06,04,11.60
2010,07,20,06,05,11.60
2010,07,20,06,06,11.60
2010,07,20,06,07,11.60
2010,07,20,06,08,11.60
2010,07,20,06,09,11.60
2010,07,20,06,10,11.60
2010,07,20,06,11,11.60
2010,07,20,06,12,11.60
2010,07,20,06,13,11.60
2010,07,20,06,14,11.60
2010,07,20,06,15,11.60
2010,07,20,06,16,11.60
2010,07,20,06,17,11.60
2010,07,20,06,18,11.60
2010,07,20,06,19,11.60
2010,07,20,06,20,11.60
2010,07,20,06,21,11.60
2010,07,20,06,22,11.60
2010,07,20,06,23,11.60
2010,07,20,06,24,11.60
2010,07,20,06,25,11.60
2010,07,20,06,26,11.70
2010,07,20,06,27,11.60
2010,07,20,06,28,11.60
2010,07,20,06,29,11.60
2010,07,20,06,30,11.60
2010,07,20,06,31,11.60
2010,07,20,06,32,11.60
2010,07,20,06,33,11.60
2010,07,20,06,34,11.60
2010,07,20,06,35,11.60
2010,07,20,06,36,11.60
2010,07,20,06,37,11.60
2010,07,20,06,38,11.60
2010,07,20,06,39,11.60
2010,07,20,06,40,11.60
2010,07,20,06,41,11.70
2010,07,20,06,42,11.70
2010,07,20,06,43,11.70
2010,07,20,06,44,11.70
2010,07,20,06,45,11.70
2010,07,20,06,46,11.70
2010,07,20,06,47,11.70
2010,07,20,06,48,11.70
2010,07,20,06,49,11.70
2010,07,20,06,50,11.70
2010,07,20,06,51,11.70
2010,07,20,06,52,11.70
2010,07,20,06,53,11.70
2010,07,20,06,54,11.70
2010,07,20,06,55,11.80
2010,07,20,06,56,11.80
2010,07,20,06,57,11.80
2010,07,20,06,58,11.80
2010,07,20,06,59,11.80
2010,07,20,07,00,11.80
2010,07,20,07,01,11.80
2010,07,20,07,02,11.80
2010,07,20,07,03,11.80
2010,07,20,07,04,11.80
2010,07,20,07,05,11.90
2010,07,20,07,06,11.90
2010,07,20,07,07,11.90
2010,07,20,07,08,11.90
2010,07,20,07,09,11.90
2010,07,20,07,10,12.00
2010,07,20,07,11,12.00
2010,07,20,07,12,12.00
2010,07,20,07,13,12.10
2010,07,20,07,14,12.10
2010,07,20,07,15,12.10
2010,07,20,07,16,12.10
2010,07,20,07,17,12.20
2010,07,20,07,18,12.20
2010,07,20,07,19,12.20
2010,07,20,07,20,12.20
2010,07,20,07,21,12.20
2010,07,20,07,22,12.30
2010,07,20,07,23,12.30
2010,07,20,07,24,12.30
2010,07,20,07,25,12.40
2010,07,20,07,26,12.40
2010,07,20,07,27,12.40
2010,07,20,07,28,12.40
2010,07,20,07,29,12.50
2010,07,20,07,30,12.50
2010,07,20,07,31,12.60
2010,07,20,07,32,12.60
2010,07,20,07,33,12.60
2010,07,20,07,34,12.70
2010,07,20,07,35,12.70
2010,07,20,07,36,12.70
2010,07,20,07,37,12.80
2010,07,20,07,38,12.80
2010,07,20,07,39,12.80
2010,07,20,07,40,12.80
2010,07,20,07,41,12.80
2010,07,20,07,42,12.90
2010,07,20,07,43,12.90
2010,07,20,07,44,12.90
2010,07,20,07,45,13.00
2010,07,20,07,46,13.00
2010,07,20,07,47,13.00
2010,07,20,07,48,13.00
2010,07,20,07,49,13.10
2010,07,20,07,50,13.10
2010,07,20,07,51,13.10
2010,07,20,07,52,13.10
2010,07,20,07,53,13.10
2010,07,20,07,54,13.10
2010,07,20,07,55,13.10
2010,07,20,07,56,13.10
2010,07,20,07,57,13.20
2010,07,20,07,58,13.20
2010,07,20,07,59,13.20
2010,07,20,08,00,13.20
2010,07,20,08,01,13.30
2010,07,20,08,02,13.30
2010,07,20,08,03,13.30
2010,07,20,08,04,13.30
2010,07,20,08,05,13.40
2010,07,20,08,06,13.40
2010,07,20,08,07,13.40
2010,07,20,08,09,13.40
2010,07,20,08,10,13.40
2010,07,20,08,11,13.40
2010,07,20,08,12,13.50
2010,07,20,08,20,13.60
2010,07,20,08,24,13.60
2010,07,20,09,41,16.10
2010,07,20,09,42,16.10
2010,07,20,09,43,16.10
2010,07,20,09,44,16.10
2010,07,20,09,45,16.10
2010,07,20,09,46,16.20
2010,07,20,09,47,16.10
2010,07,20,09,48,16.10
2010,07,20,09,49,16.10
2010,07,20,09,50,16.10
2010,07,20,09,51,16.10
2010,07,20,09,52,16.10
2010,07,20,09,53,16.10
2010,07,20,09,54,16.20
2010,07,20,09,55,16.20
2010,07,20,09,56,16.30
2010,07,20,09,57,16.40
2010,07,20,09,58,16.50
2010,07,20,09,59,16.60
2010,07,20,10,00,16.60
2010,07,20,10,01,16.60
2010,07,20,10,02,16.60
2010,07,20,10,03,16.60
2010,07,20,10,04,16.60
2010,07,20,10,05,16.60
2010,07,20,10,06,16.60
2010,07,20,10,07,16.60
2010,07,20,10,08,16.60
2010,07,20,10,09,16.70
2010,07,20,10,10,16.70
2010,07,20,10,11,16.80
2010,07,20,10,12,16.80
2010,07,20,10,13,16.80
2010,07,20,10,14,16.90
2010,07,20,10,15,16.90
2010,07,20,10,16,16.90
2010,07,20,10,17,16.80
2010,07,20,10,18,16.80
2010,07,20,10,19,16.80
2010,07,20,10,20,16.90
2010,07,20,10,21,17.00
2010,07,20,10,22,17.10
2010,07,20,10,23,17.10
2010,07,20,10,24,17.20
2010,07,20,10,25,17.20
2010,07,20,10,26,17.30
2010,07,20,10,27,17.30
2010,07,20,10,28,17.30
2010,07,20,10,29,17.20
2010,07,20,10,30,17.20
2010,07,20,10,31,17.20
2010,07,20,10,32,17.20
2010,07,20,10,33,17.20
2010,07,20,10,34,17.10
2010,07,20,10,35,16.90
2010,07,20,10,36,16.80
2010,07,20,10,37,16.80
2010,07,20,10,38,16.70
2010,07,20,10,39,16.50
2010,07,20,10,40,16.50
2010,07,20,10,41,16.40
2010,07,20,10,42,16.40
2010,07,20,10,43,16.50
2010,07,20,10,44,16.50
2010,07,20,10,45,16.50
2010,07,20,10,46,16.60
2010,07,20,10,47,16.60
2010,07,20,10,48,16.70
2010,07,20,10,49,16.80
2010,07,20,10,50,16.90
2010,07,20,10,51,17.00
2010,07,20,10,52,17.10
2010,07,20,10,53,17.10
2010,07,20,10,54,17.10
2010,07,20,10,55,17.10
2010,07,20,10,56,17.10
2010,07,20,10,57,17.10
2010,07,20,10,58,17.20
2010,07,20,10,59,17.10
2010,07,20,11,00,17.20
2010,07,20,11,01,17.30
2010,07,20,11,02,17.30
2010,07,20,11,03,17.40
2010,07,20,11,04,17.50
2010,07,20,11,05,17.60
2010,07,20,11,06,17.70
2010,07,20,11,07,17.70
2010,07,20,11,08,17.70
2010,07,20,11,09,17.70
2010,07,20,11,10,17.70
2010,07,20,11,11,17.70
2010,07,20,11,12,17.80
2010,07,20,11,13,17.80
2010,07,20,11,14,17.90
2010,07,20,11,15,17.90
2010,07,20,11,16,17.90
2010,07,20,11,17,17.80
2010,07,20,11,18,17.80
2010,07,20,11,19,17.90
2010,07,20,11,20,17.90
2010,07,20,11,21,17.90
2010,07,20,11,22,18.00
2010,07,20,11,23,18.00
2010,07,20,11,24,18.00
2010,07,20,11,25,18.00
2010,07,20,11,26,18.00
2010,07,20,11,27,18.20
2010,07,20,11,28,18.30
2010,07,20,11,29,18.30
2010,07,20,11,30,18.50
2010,07,20,11,31,18.50
2010,07,20,11,32,18.60
2010,07,20,11,33,18.70
2010,07,20,11,34,18.70
2010,07,20,11,35,18.70
2010,07,20,11,36,18.70
2010,07,20,11,37,18.60
2010,07,20,11,38,18.60
2010,07,20,11,39,18.70
2010,07,20,11,40,18.80
2010,07,20,11,41,18.80
2010,07,20,11,42,18.90
2010,07,20,11,43,19.00
2010,07,20,11,44,19.00
2010,07,20,11,45,19.00
2010,07,20,11,46,19.10
2010,07,20,11,47,19.10
2010,07,20,11,48,19.10
2010,07,20,11,49,19.10
2010,07,20,11,50,19.20
2010,07,20,11,51,19.10
2010,07,20,11,52,19.10
2010,07,20,11,53,19.10
2010,07,20,11,54,19.10
2010,07,20,11,55,19.20
2010,07,20,11,56,19.20
2010,07,20,11,57,19.30
2010,07,20,11,58,19.30
2010,07,20,11,59,19.30
2010,07,20,12,00,19.30
2010,07,20,12,01,19.30
2010,07,20,12,02,19.30
2010,07,20,12,03,19.20
2010,07,20,12,04,19.20
2010,07,20,12,05,19.20
2010,07,20,12,06,19.10
2010,07,20,12,07,19.00
2010,07,20,12,08,18.90
2010,07,20,12,09,19.00
2010,07,20,12,10,19.10
2010,07,20,12,11,19.20
2010,07,20,12,12,19.20
2010,07,20,12,13,19.10
2010,07,20,12,14,19.10
2010,07,20,12,15,19.00
2010,07,20,12,16,18.90
2010,07,20,12,17,18.90
2010,07,20,12,18,18.90
2010,07,20,12,19,18.80
2010,07,20,12,20,18.70
2010,07,20,12,21,18.70
2010,07,20,12,22,18.60
2010,07,20,12,23,18.60
2010,07,20,12,24,18.60
2010,07,20,12,25,18.70
2010,07,20,12,26,18.90
2010,07,20,12,27,18.90
2010,07,20,12,28,18.90
2010,07,20,12,29,18.90
2010,07,20,12,30,18.80
2010,07,20,12,31,18.90
2010,07,20,12,32,18.90
2010,07,20,12,33,18.90
2010,07,20,12,34,18.90
2010,07,20,12,35,18.80
2010,07,20,12,36,18.90
2010,07,20,12,37,18.90
2010,07,20,12,38,18.90
2010,07,20,12,39,18.90
2010,07,20,12,40,18.90
2010,07,20,12,41,18.90
2010,07,20,12,42,18.90
2010,07,20,12,43,18.90
2010,07,20,12,44,18.90
2010,07,20,12,45,19.00
2010,07,20,12,46,19.10
2010,07,20,12,47,19.20
2010,07,20,12,48,19.20
2010,07,20,12,49,19.20
2010,07,20,12,50,19.20
2010,07,20,12,51,19.20
2010,07,20,12,52,19.30
2010,07,20,12,53,19.30
2010,07,20,12,54,19.30
2010,07,20,12,55,19.30
2010,07,20,12,56,19.30
2010,07,20,12,57,19.30
2010,07,20,12,58,19.30
2010,07,20,12,59,19.30
2010,07,20,13,00,19.30
2010,07,20,13,01,19.40
2010,07,20,13,02,19.40
2010,07,20,13,03,19.50
2010,07,20,13,04,19.50
2010,07,20,13,05,19.40
2010,07,20,13,06,19.40
2010,07,20,13,07,19.50
2010,07,20,13,08,19.50
2010,07,20,13,09,19.60
2010,07,20,13,10,19.50
2010,07,20,13,11,19.50
2010,07,20,13,12,19.50
2010,07,20,13,13,19.60
2010,07,20,13,14,19.60
2010,07,20,13,15,19.70
2010,07,20,13,16,19.80
2010,07,20,13,17,19.80
2010,07,20,13,18,19.90
2010,07,20,13,19,20.00
2010,07,20,13,20,20.00
2010,07,20,13,21,20.00
2010,07,20,13,22,20.00
2010,07,20,13,23,20.00
2010,07,20,13,24,20.10
2010,07,20,13,25,20.20
2010,07,20,13,26,20.10
2010,07,20,13,27,20.10
2010,07,20,13,28,20.10
2010,07,20,13,29,20.20
2010,07,20,13,30,20.20
2010,07,20,13,31,20.00
2010,07,20,13,32,19.90
2010,07,20,13,33,19.70
2010,07,20,13,34,19.50
2010,07,20,13,35,19.40
2010,07,20,13,36,19.40
2010,07,20,13,37,19.40
2010,07,20,13,38,19.40
2010,07,20,13,39,19.50
2010,07,20,13,40,19.40
2010,07,20,13,41,19.30
2010,07,20,13,42,19.20
2010,07,20,13,43,19.20
2010,07,20,13,44,19.20
2010,07,20,13,45,19.30
2010,07,20,13,46,19.40
2010,07,20,13,47,19.50
2010,07,20,13,48,19.60
2010,07,20,13,49,19.70
2010,07,20,13,50,19.70
2010,07,20,13,51,19.80
2010,07,20,13,52,19.90
2010,07,20,13,53,19.90
2010,07,20,13,54,19.90
2010,07,20,13,55,19.80
2010,07,20,13,56,19.70
2010,07,20,13,57,19.70
2010,07,20,13,58,19.80
2010,07,20,13,59,19.90
2010,07,20,14,00,20.00
2010,07,20,14,01,20.00
2010,07,20,14,02,20.10
2010,07,20,14,03,20.00
2010,07,20,14,04,19.90
2010,07,20,14,05,20.00
2010,07,20,14,06,20.00
2010,07,20,14,07,20.00
2010,07,20,14,08,20.00
2010,07,20,14,09,20.00
2010,07,20,14,10,20.10
2010,07,20,14,11,20.20
2010,07,20,14,12,20.30
2010,07,20,14,13,20.30
2010,07,20,14,14,20.40
2010,07,20,14,15,20.40
2010,07,20,14,16,20.50
2010,07,20,14,17,20.50
2010,07,20,14,18,20.50
2010,07,20,14,19,20.60
2010,07,20,14,20,20.70
2010,07,20,14,21,20.70
2010,07,20,14,22,20.70
2010,07,20,14,23,20.70
2010,07,20,14,24,20.70
2010,07,20,14,25,20.70
2010,07,20,14,26,20.80
2010,07,20,14,27,20.90
2010,07,20,14,28,21.00
2010,07,20,14,29,21.00
2010,07,20,14,30,21.00
2010,07,20,14,31,21.00
2010,07,20,14,32,20.90
2010,07,20,14,33,21.00
2010,07,20,14,34,20.90
2010,07,20,14,35,20.90
2010,07,20,14,36,20.80
2010,07,20,14,37,20.80
2010,07,20,14,38,20.80
2010,07,20,14,39,20.80
2010,07,20,14,40,20.80
2010,07,20,14,41,20.90
2010,07,20,14,42,20.90
2010,07,20,14,43,21.00
2010,07,20,14,44,21.10
2010,07,20,14,45,21.10
2010,07,20,14,46,21.10
2010,07,20,14,47,21.10
2010,07,20,14,48,21.10
2010,07,20,14,49,21.10
2010,07,20,14,50,21.10
2010,07,20,14,51,21.30
2010,07,20,14,52,21.20
2010,07,20,14,53,21.10
2010,07,20,14,54,20.90
2010,07,20,14,55,20.70
2010,07,20,14,56,20.70
2010,07,20,14,57,20.70
2010,07,20,14,58,20.60
2010,07,20,14,59,20.70
2010,07,20,15,00,20.70
2010,07,20,15,01,20.80
2010,07,20,15,02,20.80
2010,07,20,15,03,20.80
2010,07,20,15,04,20.80
2010,07,20,15,05,20.80
2010,07,20,15,06,20.80
2010,07,20,15,07,20.80
2010,07,20,15,08,20.80
2010,07,20,15,09,20.80
2010,07,20,15,10,20.90
2010,07,20,15,11,20.90
2010,07,20,15,12,20.80
2010,07,20,15,13,20.80
2010,07,20,15,14,20.80
2010,07,20,15,15,20.80
2010,07,20,15,16,20.90
2010,07,20,15,17,20.90
2010,07,20,15,18,20.90
2010,07,20,15,19,20.90
2010,07,20,15,20,20.80
2010,07,20,15,21,20.80
2010,07,20,15,22,20.80
2010,07,20,15,23,20.80
2010,07,20,15,24,20.80
2010,07,20,15,25,20.70
2010,07,20,15,26,20.60
2010,07,20,15,27,20.50
2010,07,20,15,28,20.30
2010,07,20,15,29,20.40
2010,07,20,15,30,20.30
2010,07,20,15,31,20.30
2010,07,20,15,32,20.30
2010,07,20,15,33,20.30
2010,07,20,15,34,20.40
2010,07,20,15,35,20.50
2010,07,20,15,36,20.50
2010,07,20,15,37,20.40
2010,07,20,15,38,20.20
2010,07,20,15,39,20.10
2010,07,20,15,40,20.10
2010,07,20,15,41,20.00
2010,07,20,15,42,20.00
2010,07,20,15,43,20.10
2010,07,20,15,44,20.10
2010,07,20,15,45,20.10
2010,07,20,15,46,20.20
2010,07,20,15,47,20.30
2010,07,20,15,48,20.20
2010,07,20,15,49,20.20
2010,07,20,15,50,20.20
2010,07,20,15,51,20.20
2010,07,20,15,52,20.20
2010,07,20,15,53,20.20
2010,07,20,15,54,20.20
2010,07,20,15,55,20.20
2010,07,20,15,56,20.20
2010,07,20,15,57,20.20
2010,07,20,15,58,20.20
2010,07,20,15,59,20.20
2010,07,20,16,00,20.30
2010,07,20,16,01,20.40
2010,07,20,16,02,20.30
2010,07,20,16,03,20.40
2010,07,20,16,04,20.50
2010,07,20,16,05,20.50
2010,07,20,16,06,20.60
2010,07,20,16,07,20.70
2010,07,20,16,08,20.80
2010,07,20,16,09,20.80
2010,07,20,16,10,20.80
2010,07,20,16,11,20.80
2010,07,20,16,12,20.80
2010,07,20,16,13,20.70
2010,07,20,16,14,20.80
2010,07,20,16,15,20.80
2010,07,20,16,16,21.00
2010,07,20,16,17,21.10
2010,07,20,16,18,21.20
2010,07,20,16,19,21.30
2010,07,20,16,20,21.30
2010,07,20,16,21,21.30
2010,07,20,16,22,21.40
2010,07,20,16,23,21.50
2010,07,20,16,24,21.60
2010,07,20,16,25,21.70
2010,07,20,16,26,21.80
2010,07,20,16,27,21.80
2010,07,20,16,28,22.00
2010,07,20,16,29,22.10
2010,07,20,16,30,22.10
2010,07,20,16,31,22.10
2010,07,20,16,32,22.10
2010,07,20,16,33,22.00
2010,07,20,16,34,22.00
2010,07,20,16,35,22.00
2010,07,20,16,36,22.10
2010,07,20,16,37,22.20
2010,07,20,16,38,22.20
2010,07,20,16,39,22.30
2010,07,20,16,40,22.30
2010,07,20,16,41,22.30
2010,07,20,16,42,22.40
2010,07,20,16,43,22.40
2010,07,20,16,44,22.40
2010,07,20,16,45,22.50
2010,07,20,16,46,22.60
2010,07,20,16,47,22.70
2010,07,20,16,48,22.80
2010,07,20,16,49,22.80
2010,07,20,16,50,22.80
2010,07,20,16,51,22.70
2010,07,20,16,52,22.60
2010,07,20,16,53,22.70
2010,07,20,16,54,22.70
2010,07,20,16,55,22.80
2010,07,20,16,56,22.80
2010,07,20,16,57,22.80
2010,07,20,16,58,22.80
2010,07,20,16,59,22.80
2010,07,20,17,00,22.90
2010,07,20,17,01,22.90
2010,07,20,17,02,23.10
2010,07,20,17,03,23.20
2010,07,20,17,04,23.30
2010,07,20,17,05,23.40
2010,07,20,17,06,23.30
2010,07,20,17,07,23.40
2010,07,20,17,08,23.40
2010,07,20,17,09,23.40
2010,07,20,17,10,23.40
2010,07,20,17,11,23.40
2010,07,20,17,12,23.40
2010,07,20,17,13,23.30
2010,07,20,17,14,23.30
2010,07,20,17,15,23.20
2010,07,20,17,16,23.20
2010,07,20,17,17,23.30
2010,07,20,17,18,23.20
2010,07,20,17,19,23.10
2010,07,20,17,20,23.00
2010,07,20,17,21,22.90
2010,07,20,17,22,22.80
2010,07,20,17,23,22.70
2010,07,20,17,24,22.60
2010,07,20,17,25,22.60
2010,07,20,17,26,22.50
2010,07,20,17,27,22.60
2010,07,20,17,28,22.60
2010,07,20,17,29,22.70
2010,07,20,17,30,22.70
2010,07,20,17,31,22.70
2010,07,20,17,32,22.70
2010,07,20,17,33,22.60
2010,07,20,17,34,22.60
2010,07,20,17,35,22.60
2010,07,20,17,36,22.70
2010,07,20,17,37,22.70
2010,07,20,17,38,22.60
2010,07,20,17,39,22.50
2010,07,20,17,40,22.40
2010,07,20,17,41,22.40
2010,07,20,17,42,22.30
2010,07,20,17,43,22.30
2010,07,20,17,44,22.30
2010,07,20,17,45,22.40
2010,07,20,17,46,22.40
2010,07,20,17,47,22.40
2010,07,20,17,48,22.50
2010,07,20,17,49,22.50
2010,07,20,17,50,22.50
2010,07,20,17,51,22.50
2010,07,20,17,52,22.50
2010,07,20,17,53,22.50
2010,07,20,17,54,22.50
2010,07,20,17,55,22.50
2010,07,20,17,56,22.50
2010,07,20,17,57,22.60
2010,07,20,17,58,22.50
2010,07,20,17,59,22.60
2010,07,20,18,00,22.60
2010,07,20,18,01,22.60
2010,07,20,18,02,22.60
2010,07,20,18,03,22.60
2010,07,20,18,04,22.50
2010,07,20,18,05,22.40
2010,07,20,18,06,22.40
2010,07,20,18,07,22.40
2010,07,20,18,08,22.40
2010,07,20,18,09,22.30
2010,07,20,18,10,22.20
2010,07,20,18,11,22.20
2010,07,20,18,12,22.20
2010,07,20,18,13,22.10
2010,07,20,18,14,22.00
2010,07,20,18,15,22.00
2010,07,20,18,16,21.90
2010,07,20,18,17,21.80
2010,07,20,18,18,21.80
2010,07,20,18,19,21.70
2010,07,20,18,20,21.60
2010,07,20,18,21,21.50
2010,07,20,18,22,21.50
2010,07,20,18,23,21.40
2010,07,20,18,24,21.40
2010,07,20,18,25,21.40
2010,07,20,18,26,21.40
2010,07,20,18,27,21.40
2010,07,20,18,28,21.40
2010,07,20,18,29,21.30
2010,07,20,18,30,21.30
2010,07,20,18,31,21.30
2010,07,20,18,32,21.30
2010,07,20,18,33,21.30
2010,07,20,18,34,21.30
2010,07,20,18,35,21.30
2010,07,20,18,36,21.30
2010,07,20,18,37,21.30
2010,07,20,18,38,21.30
2010,07,20,18,39,21.20
2010,07,20,18,40,21.10
2010,07,20,18,41,21.00
2010,07,20,18,42,21.00
2010,07,20,18,43,20.90
2010,07,20,18,44,20.80
2010,07,20,18,45,20.80
2010,07,20,18,46,20.70